Torna al catalogo

STARLINK-34289

AttivoComunicazioniVLEO
NORAD 64225·PAYLOAD·🇺🇸 United States

Lanciato May 31, 2025 da Vandenberg Space Force Base

Loading…

Prossimi Passaggi (prossime 24 ore)

TLE

AggiornatoSource: CelesTrak SupGP

Epoca: Sep 14, 2026, 21:42 UTC

1 64225C 25117Y   26257.90465278  .00035268  00000+0  10420-2 0  2577
2 64225  53.1579 237.6679 0001398  96.4852  73.4055 15.34372900    15

Traccia STARLINK-34289 in tempo reale con AllMySat

Download on the App Store